Regional Weather Roundup
Issued by NWS

Home | Current Version | Previous Version | Graphics & Text | Print | Product List | Glossary On
Versions: 1 2 3 4 5 6 7 8 9 10 11 12 13 14 15 16 17 18 19 20 21 22 23 24 25 26 27 28 29 30 31 32 33 34 35 36 37 38 39 40 41 42 43 44 45 46 47 48 49 50
634
ASUS45 KTFX 210010
RWRMT
MONTANA REGIONAL WEATHER ROUNDUP
NATIONAL WEATHER SERVICE GREAT FALLS MT
600 PM MDT FRI APR 20 2018

NOTE: "FAIR" INDICATES FEW OR NO CLOUDS BELOW 12000 FEET WITH NO
SIGNIFICANT WEATHER AND/OR OBSTRUCTIONS TO VISIBILITY.

MTZ001>007-043-210100-
WEST OF THE DIVIDE

CITY           SKY/WX    TMP DP  RH WIND       PRES   REMARKS
KALISPELL      FAIR      62  29  28 SE15      30.07F
MISSOULA       FAIR      64  27  24 S6        30.07F
BUTTE          FAIR      60  14  16 NW13      30.11S
MULLAN PASS    FAIR      47  25  42 VRB3      30.16S
ANACONDA         N/A     57  19  23 N7        30.11S
DEER LODGE       N/A     59  21  23 N5        30.13S
HAMILTON         N/A     64  21  19 MISG      30.09F
RONAN            N/A     63  28  27 CALM      30.10F
$$

MTZ008-052>055-210100-
SOUTHWEST MONTANA

CITY           SKY/WX    TMP DP  RH WIND       PRES   REMARKS
BOZEMAN        FAIR      63  25  23 W8        30.07F
DILLON         FAIR      60  22  23 VRB6      30.07S
ENNIS          SUNNY     59  27  29 N16       30.12R
W YELLOWSTONE  FAIR      48  23  37 NE12G20   30.07S
THREE FORKS      N/A     63  21  20 NE5       30.07R
$$

MTZ009-010-012-014-046-048-049-054-210100-
EAST SLOPES AND CENTRAL MONTANA

CITY           SKY/WX    TMP DP  RH WIND       PRES   REMARKS
CUT BANK       FAIR      58  21  24 W14       30.06S
GREAT FALLS    FAIR      64  16  15 W9        30.06S
HELENA         FAIR      64  18  17 W7G18     30.09S
AUGUSTA        FAIR      59  15  17 W8        30.07S
BOWMANS CRNR   FAIR      59  19  21 S10       30.06S
CHOTEAU          N/A     63  16  16 W8        30.07S
FAIRFIELD      FAIR      63  16  16 NW7       30.05S
POWER          FAIR      63  16  16 W8        30.05S
RAYNESFORD     FAIR      63  16  16 W8        30.07S
ULM            FAIR      64  15  15 CALM      30.06S
WHITE SULPHUR    N/A     59  19  21 SW5       30.07F
$$

MTZ011-013-016-021-045-047-050-051-210100-
NORTH CENTRAL MONTANA

CITY           SKY/WX    TMP DP  RH WIND       PRES   REMARKS
HAVRE          FAIR      63  26  24 W12       30.06S
LEWISTOWN      FAIR      63  33  32 E6        30.07S
N BAR RANCH    PTSUNNY   59  28  31 NE9       30.12R
CHINOOK          N/A     64  19  17 W7        30.06S
GEYSER         FAIR      62  26  25 CALM      30.07S
GRASS RANGE    FAIR      62  33  34 NE9       30.05S
STANFORD       FAIR      60  28  29 NE7       30.08S
$$

MTZ017>020-022>027-061-062-210100-
NORTHEAST MONTANA

CITY           SKY/WX    TMP DP  RH WIND       PRES   REMARKS
GLASGOW        FAIR      69  31  24 E3        30.06S
GLENDIVE       FAIR      62  34  35 S17       30.09R
JORDAN           N/A     66  35  31 NE10      30.06R
MALTA          SUNNY     64  37  36 SW5       30.04S
SIDNEY         FAIR      66  32  28 S13       30.09S
WOLF POINT     FAIR      70  34  26 E7        30.07S
PLENTYWOOD       N/A     64  34  32 CALM      30.10S
POPLAR           N/A     68  32  26 SE8       30.07S
$$

MTZ028>42-056>058-210100-
SOUTHCENTRAL AND SOUTHEAST MONTANA

CITY           SKY/WX    TMP DP  RH WIND       PRES   REMARKS
BAKER          FAIR      58  35  42 SE21      30.11S
BILLINGS       FAIR      62  37  39 E10       30.06R
LIVINGSTON     PTSUNNY   64  29  26 E5        30.07S
MILES CITY     FAIR      64  36  35 E6        30.05S
BIG TIMBER     SUNNY     63  25  23 NE8       30.08S
FORSYTH          N/A     63  36  36 NE6       30.06R
HARLOWTON      FAIR      62  24  24 E9        30.07S
LAUREL           N/A     64  34  32 NE12      30.06S
ROUNDUP          N/A     63  32  31 NE8       29.98S
$$

REGIONAL REPORTS...DAKOTAS

CITY           SKY/WX    TMP DP  RH WIND       PRES   REMARKS
WILLISTON      FAIR      65  31  28 SE12      30.12S
MINOT          FAIR      59  34  39 SE16      30.20F
DICKINSON      FAIR      57  32  38 S21G28    30.14R
BEACH          FAIR      59  32  36 SE15G22   30.14S
CROSBY         FAIR      57  37  47 SE14G21   30.15F
TIOGA          FAIR      55  37  50 SE18      30.17S
WATFORD CITY   FAIR      63  28  27 SE16      30.12S
BISMARCK       FAIR      57  30  35 S24G30    30.24R
GRAND FORKS    PTSUNNY   51  38  60 S12       30.35R
FARGO          FAIR      53  34  48 S13       30.36S
BUFFALO SD       N/A     52  38  58 SE31G39   30.05
RAPID CITY     CLOUDY    40  39  97 SE22G28   30.21R FOG
$$

REGIONAL REPORTS...WYOMING/IDAHO/WASHINGTON

CITY           SKY/WX    TMP DP  RH WIND       PRES   REMARKS
GILLETTE       CLOUDY    50  34  54 SE14      30.09R
SHERIDAN       FAIR      59  33  37 VRB6      30.07R
BUFFALO WY     PTSUNNY   51  31  46 SE10      30.10R
CODY           FAIR      58  32  37 N23G30    30.05R
YELLOWSTONE LA   N/A     50  18  28 VRB6      30.13R
IDAHO FALLS    FAIR      66  23  19 N16       30.02R
SALMON         FAIR      66  24  20 N9        30.05S
BOISE          FAIR      68  27  21 W13G21    30.08R
SPOKANE        FAIR      61  31  32 SW13      30.14S
$$

REGIONAL REPORTS...ALBERTA

CITY           SKY/WX    TMP DP  RH WIND       PRES   REMARKS
CALGARY        MOSUNNY   52  21  30 SE10G20   30.00F
CARDSTON         N/A     57  25  28 SW9         N/A
EDMONTON       SUNNY     59  27  29 SW7       29.97F
FORT MCMURRAY  SUNNY     59  28  31 W14G22    29.89R
HIGH LEVEL     MOSUNNY   57  21  24 VRB2      29.77S
LETHBRIDGE     PTSUNNY   63  23  22 VRB7      30.01S
LLOYDMINSTER   PTSUNNY   55  36  47 NW3       30.01S
MEDICINE HAT   CLOUDY    63  27  25 W10       30.02S
MILK RIVER       N/A     63  19  19 SW12        N/A
ONEFOUR          N/A     63  23  22 W7          N/A
PEACE RIVER    PTSUNNY   46  28  49 SW7       29.90S
PINCHER CREEK  SUNNY     55  27  33 W22G28    30.02S
$$

REGIONAL REPORTS...SASKATCHEWAN

CITY           SKY/WX    TMP DP  RH WIND       PRES   REMARKS
CORONACH         N/A     63  32  31 E8          N/A
CYPRESS HILLS    N/A     54  25  32 SW7         N/A
ESTEVAN        MOSUNNY   57  36  44 SE15G22   30.16S
MOOSE JAW        N/A     63  30  29 SE12        N/A
REGINA         MOSUNNY   59  37  44 SE13      30.13S
ROCKGLEN         N/A     61  30  31 S6          N/A
SASKATOON      MOSUNNY   64  39  39 S14       30.03S
SWIFT CURRENT  SUNNY     61  36  39 SW15G21   30.03S
VAL MARIE        N/A     64  32  29 W9          N/A
$$




USA.gov is the U.S. government's official web portal to all federal, state and local government web resources and services.